• In Uzbekistan
  • List of Countries
  • For 7 days
  • Water Temperature
  • Satellite Maps
  • Weather Map
  • Weather Widgets
  • user-avatar
    Login

    Hourly Weather Yeghegnadzor

    Today, 25 July, Tuesday

    Time Temperature Precipitation Wind Pressure Humidity
    00:00 +21°C° 0 mm 2 mps 650 mmHg 70%
    01:00 +21°C° 0 mm 2 mps 650 mmHg 69%
    02:00 +20°C° 0 mm 2 mps 650 mmHg 68%
    03:00 +20°C° 0 mm 2 mps 650 mmHg 66%
    04:00 +20°C° 0 mm 2 mps 650 mmHg 64%
    05:00 +21°C° 0 mm 2 mps 650 mmHg 62%
    06:00 +21°C° 0 mm 2 mps 651 mmHg 60%
    07:00 +24°C° 0 mm 2 mps 651 mmHg 54%
    08:00 +26°C° 0 mm 2 mps 651 mmHg 47%
    09:00 +28°C° 0 mm 1 mps 651 mmHg 40%
    10:00 +29°C° 0 mm 2 mps 651 mmHg 37%
    11:00 +30°C° 0 mm 2 mps 651 mmHg 34%
    12:00 +31°C° 0 mm 3 mps 651 mmHg 31%
    13:00 +33°C° 0.3 mm 3 mps 651 mmHg 30%
    14:00 +33°C° 0.3 mm 3 mps 650 mmHg 30%
    15:00 +33°C° 0.3 mm 3 mps 650 mmHg 29%
    16:00 +31°C° 0.2 mm 2 mps 650 mmHg 33%
    17:00 +31°C° 0.2 mm 2 mps 650 mmHg 36%
    18:00 +30°C° 0.2 mm 2 mps 649 mmHg 39%
    19:00 +28°C° 0.1 mm 2 mps 649 mmHg 46%
    20:00 +26°C° 0.1 mm 2 mps 650 mmHg 52%
    21:00 +24°C° 0.1 mm 2 mps 650 mmHg 59%
    22:00 +23°C° 0 mm 2 mps 650 mmHg 61%
    23:00 +23°C° 0 mm 2 mps 650 mmHg 63%

    Tomorrow, 26 July, Wednesday

    Time Temperature Precipitation Wind Pressure Humidity
    00:00 +21°C° 0 mm 2 mps 650 mmHg 65%
    01:00 +21°C° 0 mm 2 mps 650 mmHg 65%
    02:00 +20°C° 0 mm 2 mps 650 mmHg 65%
    03:00 +20°C° 0 mm 2 mps 650 mmHg 64%
    04:00 +21°C° 0 mm 2 mps 650 mmHg 62%
    05:00 +21°C° 0 mm 2 mps 650 mmHg 59%
    06:00 +23°C° 0 mm 1 mps 651 mmHg 56%
    07:00 +25°C° 0 mm 2 mps 651 mmHg 50%
    08:00 +27°C° 0 mm 2 mps 651 mmHg 43%
    09:00 +29°C° 0 mm 2 mps 652 mmHg 36%
    10:00 +30°C° 0 mm 2 mps 652 mmHg 33%
    11:00 +31°C° 0 mm 2 mps 652 mmHg 30%
    12:00 +33°C° 0 mm 3 mps 652 mmHg 27%
    13:00 +33°C° 0 mm 3 mps 652 mmHg 25%
    14:00 +34°C° 0 mm 3 mps 651 mmHg 24%
    15:00 +34°C° 0 mm 3 mps 651 mmHg 22%
    16:00 +32°C° 0 mm 2 mps 651 mmHg 26%
    17:00 +32°C° 0 mm 2 mps 651 mmHg 29%
    18:00 +31°C° 0 mm 2 mps 651 mmHg 32%
    19:00 +29°C° 0 mm 2 mps 651 mmHg 40%
    20:00 +26°C° 0 mm 2 mps 651 mmHg 47%
    21:00 +24°C° 0 mm 2 mps 651 mmHg 55%
    22:00 +24°C° 0 mm 2 mps 651 mmHg 57%
    23:00 +23°C° 0 mm 2 mps 651 mmHg 58%

    Day after tomorrow, 27 July, Thursday

    Time Temperature Precipitation Wind Pressure Humidity
    00:00 +23°C° 0 mm 2 mps 651 mmHg 60%
    01:00 +21°C° 0 mm 2 mps 651 mmHg 58%
    02:00 +21°C° 0 mm 2 mps 651 mmHg 57%
    03:00 +21°C° 0 mm 2 mps 651 mmHg 55%
    04:00 +21°C° 0 mm 2 mps 652 mmHg 53%
    05:00 +23°C° 0 mm 2 mps 652 mmHg 52%
    06:00 +23°C° 0 mm 2 mps 652 mmHg 50%
    07:00 +25°C° 0 mm 2 mps 653 mmHg 43%
    08:00 +28°C° 0 mm 2 mps 653 mmHg 37%
    09:00 +30°C° 0 mm 2 mps 654 mmHg 30%
    10:00 +31°C° 0 mm 2 mps 654 mmHg 28%
    11:00 +32°C° 0 mm 2 mps 654 mmHg 25%
    12:00 +34°C° 0 mm 2 mps 654 mmHg 23%
    13:00 +35°C° 0 mm 2 mps 653 mmHg 22%
    14:00 +35°C° 0 mm 3 mps 653 mmHg 21%
    15:00 +36°C° 0 mm 3 mps 653 mmHg 20%
    16:00 +35°C° 0 mm 2 mps 653 mmHg 23%
    17:00 +34°C° 0 mm 2 mps 653 mmHg 26%
    18:00 +34°C° 0 mm 2 mps 653 mmHg 29%
    19:00 +30°C° 0 mm 2 mps 652 mmHg 35%
    20:00 +28°C° 0 mm 2 mps 652 mmHg 42%
    21:00 +26°C° 0 mm 2 mps 652 mmHg 49%
    22:00 +25°C° 0 mm 2 mps 652 mmHg 48%
    23:00 +25°C° 0 mm 2 mps 652 mmHg 48%

    28 July, Friday

    Time Temperature Precipitation Wind Pressure Humidity
    00:00 +24°C° 0 mm 2 mps 652 mmHg 47%
    01:00 +24°C° 0 mm 2 mps 652 mmHg 44%
    02:00 +24°C° 0 mm 2 mps 652 mmHg 42%
    03:00 +24°C° 0 mm 2 mps 652 mmHg 40%
    04:00 +24°C° 0 mm 2 mps 653 mmHg 38%
    05:00 +24°C° 0 mm 2 mps 653 mmHg 36%
    06:00 +25°C° 0 mm 2 mps 653 mmHg 35%
    07:00 +27°C° 0 mm 2 mps 654 mmHg 31%
    08:00 +30°C° 0 mm 2 mps 654 mmHg 27%
    09:00 +32°C° 0 mm 2 mps 655 mmHg 23%
    10:00 +35°C° 0 mm 2 mps 655 mmHg 22%
    11:00 +36°C° 0 mm 3 mps 655 mmHg 20%
    12:00 +37°C° 0 mm 3 mps 655 mmHg 18%
    13:00 +38°C° 0 mm 3 mps 654 mmHg 18%
    14:00 +38°C° 0 mm 3 mps 654 mmHg 17%
    15:00 +38°C° 0 mm 3 mps 654 mmHg 16%
    16:00 +38°C° 0 mm 3 mps 654 mmHg 19%
    17:00 +37°C° 0 mm 2 mps 653 mmHg 21%
    18:00 +35°C° 0 mm 1 mps 653 mmHg 24%
    19:00 +34°C° 0 mm 2 mps 653 mmHg 26%
    20:00 +30°C° 0 mm 2 mps 653 mmHg 29%
    21:00 +28°C° 0 mm 2 mps 653 mmHg 32%
    22:00 +28°C° 0 mm 2 mps 653 mmHg 30%
    23:00 +27°C° 0 mm 2 mps 653 mmHg 29%

    29 July, Saturday

    Time Temperature Precipitation Wind Pressure Humidity
    00:00 +27°C° 0 mm 2 mps 653 mmHg 27%
    01:00 +26°C° 0 mm 2 mps 653 mmHg 27%
    02:00 +26°C° 0 mm 2 mps 653 mmHg 26%
    03:00 +26°C° 0 mm 2 mps 653 mmHg 26%
    04:00 +26°C° 0 mm 2 mps 653 mmHg 26%
    05:00 +26°C° 0 mm 2 mps 653 mmHg 27%
    06:00 +26°C° 0 mm 2 mps 653 mmHg 28%
    07:00 +29°C° 0 mm 2 mps 654 mmHg 25%
    08:00 +31°C° 0 mm 2 mps 654 mmHg 22%
    09:00 +35°C° 0 mm 2 mps 655 mmHg 18%
    10:00 +36°C° 0 mm 2 mps 655 mmHg 17%
    11:00 +37°C° 0 mm 3 mps 655 mmHg 16%
    12:00 +38°C° 0 mm 3 mps 654 mmHg 15%
    13:00 +39°C° 0 mm 3 mps 654 mmHg 15%
    14:00 +40°C° 0 mm 4 mps 654 mmHg 15%
    15:00 +40°C° 0 mm 4 mps 653 mmHg 15%
    16:00 +38°C° 0 mm 3 mps 653 mmHg 17%
    17:00 +38°C° 0 mm 3 mps 653 mmHg 19%
    18:00 +37°C° 0 mm 2 mps 653 mmHg 21%
    19:00 +34°C° 0 mm 2 mps 653 mmHg 25%
    20:00 +31°C° 0 mm 2 mps 653 mmHg 30%
    21:00 +28°C° 0 mm 2 mps 653 mmHg 34%
    22:00 +28°C° 0 mm 3 mps 653 mmHg 38%
    23:00 +27°C° 0 mm 3 mps 653 mmHg 42%

    30 July, Sunday

    Time Temperature Precipitation Wind Pressure Humidity
    00:00 +26°C° 0 mm 3 mps 653 mmHg 45%
    01:00 +25°C° 0 mm 3 mps 653 mmHg 48%
    02:00 +24°C° 0 mm 3 mps 653 mmHg 51%
    03:00 +24°C° 0 mm 2 mps 653 mmHg 54%
    04:00 +24°C° 0 mm 2 mps 654 mmHg 54%
    05:00 +24°C° 0 mm 2 mps 654 mmHg 54%
    06:00 +24°C° 0 mm 2 mps 654 mmHg 53%
    07:00 +27°C° 0 mm 2 mps 655 mmHg 47%
    08:00 +29°C° 0 mm 2 mps 655 mmHg 40%
    09:00 +31°C° 0 mm 2 mps 656 mmHg 33%
    10:00 +32°C° 0 mm 2 mps 655 mmHg 30%
    11:00 +34°C° 0 mm 3 mps 655 mmHg 27%
    12:00 +36°C° 0 mm 3 mps 655 mmHg 24%
    13:00 +36°C° 0 mm 3 mps 655 mmHg 23%
    14:00 +37°C° 0 mm 3 mps 655 mmHg 23%
    15:00 +37°C° 0 mm 3 mps 655 mmHg 22%
    16:00 +36°C° 0 mm 3 mps 654 mmHg 26%
    17:00 +35°C° 0 mm 3 mps 654 mmHg 30%
    18:00 +34°C° 0 mm 3 mps 654 mmHg 34%
    19:00 +31°C° 0 mm 3 mps 654 mmHg 42%
    20:00 +28°C° 0 mm 3 mps 654 mmHg 51%
    21:00 +26°C° 0 mm 3 mps 654 mmHg 59%
    22:00 +25°C° 0 mm 3 mps 654 mmHg 61%
    23:00 +24°C° 0 mm 3 mps 654 mmHg 62%
    Show more